(518845) = 2010 CA251

Discovered at Catalina on 2010-02-09 by CSS.

Orbit

Orbit type: Main Belt

Note: WebGL enabled browser required.

epoch2023-09-13.0
epoch JD2460200.5
perihelion date2021-03-19.22361
perihelion JD2459292.72361
argument of perihelion (°)29.06962
ascending node (°)57.98786
inclination (°)7.37776
eccentricity0.1106173
perihelion distance (AU)2.1810306
Tisserand w.r.t. Jupiter3.5
ΔV w.r.t. Earth (km/sec)9.5
semimajor axis (AU)2.4522971
mean anomaly (°)232.98239
mean daily motion (°/day)0.25665180
aphelion distance (AU)2.724
period (years)3.84
P-vector [x]0.05474501
P-vector [y]0.88949825
P-vector [z]0.45364728
Q-vector [x]-0.99254584
Q-vector [y]-0.00106553
Q-vector [z]0.12186719
absolute magnitude17.48
phase slope0.15
uncertainty0
referenceMPEC 2023-O83
observations used222
oppositions8
arc length (days)4914
first opposition used2010
last opposition used2023
residual rms (arc-secs)0.73
perturbers coarse indicatorM-v
perturbers precise indicator003Ek
first observation date used2010-02-09.0
last observation date used2023-07-25.0
computer nameMPCLINUX
Minimum Orbit Intersection Distances (in AU)
for orbit epoch: 2460200.5, reference: E2023-O83
Mercury1.87238
Venus1.46253
Earth1.19898
Mars0.59886
Jupiter2.47604
Saturn6.88118
Uranus16.0295
Neptune27.4764

Observations

228 total observations over interval: 2010 02 09.23447 – 2023 07 25.372262
These data are available for download (format description).

Date (UT) J2000 RA J2000 Dec Magn Location Ref
2010 02 09.23447 09 15 49.86 +29 11 44.4 20.5 V 703 – Catalina Sky Survey MPS 884818
2010 02 09.24012 09 15 49.50 +29 11 45.2 20.5 V 703 – Catalina Sky Survey MPS 884818
2010 02 09.24580 09 15 49.10 +29 11 46.8 20.2 V 703 – Catalina Sky Survey MPS 884818
2010 02 09.25153 09 15 48.74 +29 11 48.3 19.7 V 703 – Catalina Sky Survey MPS 884818
2010 02 15.13589 09 09 46.03 +29 32 25.5 20.5 r I41 – Palomar Mountain--ZTF MPS 439608
2010 02 15.49188 09 09 24.13 +29 33 23.6 20.4 r I41 – Palomar Mountain--ZTF MPS 439608
2010 02 16.12062 09 08 47.90 +29 35 02.6 20.3 r I41 – Palomar Mountain--ZTF MPS 439608
2010 02 16.16755 09 08 45.09 +29 35 10.7 20.2 r I41 – Palomar Mountain--ZTF MPS 439608
2010 02 16.16922 09 08 44.97 +29 35 11.0 20.5 r I41 – Palomar Mountain--ZTF MPS 439608
2010 02 16.21420 09 08 42.25 +29 35 18.1 20.3 r I41 – Palomar Mountain--ZTF MPS 439608
2010 02 16.21589 09 08 42.15 +29 35 18.4 20.6 r I41 – Palomar Mountain--ZTF MPS 439608
2010 02 16.35433 09 08 33.70 +29 35 39.4 20.4 r I41 – Palomar Mountain--ZTF MPS 439608
2010 02 16.35610 09 08 33.60 +29 35 39.7 20.4 r I41 – Palomar Mountain--ZTF MPS 439608
2010 02 16.40190 09 08 30.82 +29 35 45.9 20.3 r I41 – Palomar Mountain--ZTF MPS 439608
2010 02 16.40548 09 08 30.61 +29 35 46.6 20.4 r I41 – Palomar Mountain--ZTF MPS 439608
2010 02 16.50662 09 08 24.55 +29 36 00.5 20.5 r I41 – Palomar Mountain--ZTF MPS 439608
2014 02 20.53050 11 03 54.411 +19 38 39.78 20.0 i F51 – Pan-STARRS 1, Haleakala MPS 884818
2014 02 20.54395 11 03 53.637 +19 38 44.74 20.1 i F51 – Pan-STARRS 1, Haleakala MPS 884818
2014 02 20.55746 11 03 52.834 +19 38 49.61 20.2 i F51 – Pan-STARRS 1, Haleakala MPS 884818
2014 02 20.57104 11 03 52.041 +19 38 54.51 20.3 i F51 – Pan-STARRS 1, Haleakala MPS 884818
2014 03 08.24155 10 48 22.66 +20 54 09.0 20.3 V G96 – Mt. Lemmon Survey MPS 884818
2014 03 08.24675 10 48 22.33 +20 54 10.0 19.9 V G96 – Mt. Lemmon Survey MPS 884818
2014 03 08.25195 10 48 22.05 +20 54 11.3 20.1 V G96 – Mt. Lemmon Survey MPS 884818
2014 03 08.25715 10 48 21.72 +20 54 12.3 20.3 V G96 – Mt. Lemmon Survey MPS 884818
2014 03 29.36303 10 31 44.05 +21 10 46.7 20.9 V G96 – Mt. Lemmon Survey MPS 884818
2014 03 29.36831 10 31 43.88 +21 10 46.2 20.8 V G96 – Mt. Lemmon Survey MPS 884818
2014 03 29.37163 10 31 43.76 +21 10 46.1 20.6 V G96 – Mt. Lemmon Survey MPS 884818
2014 03 29.37495 10 31 43.67 +21 10 45.5 20.9 V G96 – Mt. Lemmon Survey MPS 884818
2016 08 02.56817 01 47 53.228 +02 58 38.76 21.6 w F51 – Pan-STARRS 1, Haleakala MPS 884818
2016 08 02.59459 01 47 54.345 +02 58 42.91 21.7 w F51 – Pan-STARRS 1, Haleakala MPS 884818
2016 08 02.60786 01 47 54.899 +02 58 45.05 21.5 w F51 – Pan-STARRS 1, Haleakala MPS 884818
2016 09 30.48250 01 47 06.954 +02 19 02.01 20.6 w F51 – Pan-STARRS 1, Haleakala MPS 884818
2016 09 30.48314 01 47 06.923 +02 19 01.94 20.5 w F51 – Pan-STARRS 1, Haleakala MPS 884818
2016 09 30.49438 01 47 06.339 +02 18 59.83 20.5 w F51 – Pan-STARRS 1, Haleakala MPS 884818
2016 09 30.50567 01 47 05.765 +02 18 57.62 20.5 w F51 – Pan-STARRS 1, Haleakala MPS 884818
2016 09 30.51625 01 47 05.226 +02 18 55.66 20.4 w F51 – Pan-STARRS 1, Haleakala MPS 884818
2016 09 30.51692 01 47 05.194 +02 18 55.41 20.3 w F51 – Pan-STARRS 1, Haleakala MPS 884818
2016 10 04.25507 01 43 55.29 +02 07 03.4 20.9 G G45 – Space Surveillance Telescope, Atom Site MPS 1611209
2016 10 04.30877 01 43 52.32 +02 06 53.2 20.7 G G45 – Space Surveillance Telescope, Atom Site MPS 1611209
2016 10 04.35842 01 43 49.60 +02 06 43.8 19.0 G G45 – Space Surveillance Telescope, Atom Site MPS 1611209
2016 10 04.40541 01 43 46.99 +02 06 36.1 20.8 G G45 – Space Surveillance Telescope, Atom Site MPS 1611209
2016 10 05.23419 01 43 02.96 +02 03 57.9 20.5 G G45 – Space Surveillance Telescope, Atom Site MPS 1611209
2016 10 05.27879 01 43 00.45 +02 03 50.0 20.3 G G45 – Space Surveillance Telescope, Atom Site MPS 1611209
2016 10 05.31955 01 42 58.17 +02 03 42.3 20.9 G G45 – Space Surveillance Telescope, Atom Site MPS 1611209
2016 10 05.39456 01 42 54.00 +02 03 28.4 20.6 G G45 – Space Surveillance Telescope, Atom Site MPS 1611209
2016 10 09.31899 01 39 15.20 +01 51 19.0 19.7 V G96 – Mt. Lemmon Survey MPS 884818
2016 10 09.32830 01 39 14.64 +01 51 16.8 20.0 V G96 – Mt. Lemmon Survey MPS 884818
2016 10 09.33807 01 39 14.05 +01 51 15.5 20.2 V G96 – Mt. Lemmon Survey MPS 884818
2016 10 09.34237 01 39 13.78 +01 51 14.7 20.1 V G96 – Mt. Lemmon Survey MPS 884818
2016 10 19.28152 01 29 23.59 +01 24 24.5 19.4 V G96 – Mt. Lemmon Survey MPS 884818
2016 10 19.28578 01 29 23.31 +01 24 23.1 19.8 V G96 – Mt. Lemmon Survey MPS 884818
2016 10 19.29006 01 29 23.06 +01 24 22.9 19.4 V G96 – Mt. Lemmon Survey MPS 884818
2016 10 19.29432 01 29 22.78 +01 24 22.4 20.0 V G96 – Mt. Lemmon Survey MPS 884818
2016 10 22.07393 01 26 36.47 +01 18 28.2 19.8 G G45 – Space Surveillance Telescope, Atom Site MPS 1611209
2016 10 22.21878 01 26 27.64 +01 18 11.5 20.3 G G45 – Space Surveillance Telescope, Atom Site MPS 1611209
2016 10 22.32452 01 26 21.05 +01 17 59.0 20.4 G G45 – Space Surveillance Telescope, Atom Site MPS 1611209
2016 10 22.37673 01 26 17.82 +01 17 52.7 20.9 G G45 – Space Surveillance Telescope, Atom Site MPS 1611209
2016 10 22.42857 01 26 14.68 +01 17 47.5 19.8 G G45 – Space Surveillance Telescope, Atom Site MPS 1611209
2016 10 23.15779 01 25 31.90 +01 16 25.5 20.7 G G45 – Space Surveillance Telescope, Atom Site MPS 1611209
2016 10 23.21040 01 25 28.68 +01 16 19.7 20.3 G G45 – Space Surveillance Telescope, Atom Site MPS 1611209
2016 10 23.26383 01 25 25.40 +01 16 13.7 20.4 G G45 – Space Surveillance Telescope, Atom Site MPS 1611209
2016 10 23.31800 01 25 22.10 +01 16 07.9 20.4 G G45 – Space Surveillance Telescope, Atom Site MPS 1611209
2016 10 23.36912 01 25 18.98 +01 16 02.1 20.1 G G45 – Space Surveillance Telescope, Atom Site MPS 1611209
2016 10 23.42704 01 25 15.49 +01 15 55.5 20.4 G G45 – Space Surveillance Telescope, Atom Site MPS 1611209
2016 10 23.42718 01 25 15.40 +01 15 55.9 20.0 G G45 – Space Surveillance Telescope, Atom Site MPS 1611209
2016 11 07.25375 01 12 07.94 +01 05 57.2 20.5 V G96 – Mt. Lemmon Survey MPS 888576
2016 11 07.25805 01 12 07.80 +01 05 56.2 20.2 V G96 – Mt. Lemmon Survey MPS 888576
2016 11 07.26243 01 12 07.62 +01 05 56.7 20.4 V G96 – Mt. Lemmon Survey MPS 888576
2016 11 07.26672 01 12 07.38 +01 05 56.9 20.5 V G96 – Mt. Lemmon Survey MPS 888576
2016 11 20.05580 01 04 48.09 +01 28 11.3 20.4 G G45 – Space Surveillance Telescope, Atom Site MPS 1611209
2016 11 20.08803 01 04 47.27 +01 28 16.5 21.0 G G45 – Space Surveillance Telescope, Atom Site MPS 1611209
2016 11 20.12341 01 04 46.34 +01 28 22.9 21.4 G G45 – Space Surveillance Telescope, Atom Site MPS 1611209
2016 11 20.15152 01 04 45.67 +01 28 27.4 20.9 G G45 – Space Surveillance Telescope, Atom Site MPS 1611209
2016 11 20.18114 01 04 44.90 +01 28 32.9 20.9 G G45 – Space Surveillance Telescope, Atom Site MPS 1611209
2016 11 20.18125 01 04 44.92 +01 28 32.5 20.6 G G45 – Space Surveillance Telescope, Atom Site MPS 1611209
2016 11 20.24058 01 04 43.38 +01 28 42.6 20.9 G G45 – Space Surveillance Telescope, Atom Site MPS 1611209
2016 11 21.08418 01 04 24.83 +01 31 15.2 20.9 G G45 – Space Surveillance Telescope, Atom Site MPS 1611209
2016 11 21.11237 01 04 24.19 +01 31 20.6 20.1 G G45 – Space Surveillance Telescope, Atom Site MPS 1611209
2016 11 21.18040 01 04 22.67 +01 31 32.3 20.9 G G45 – Space Surveillance Telescope, Atom Site MPS 1611209
2016 11 21.26806 01 04 20.56 +01 31 49.8 19.4 G G45 – Space Surveillance Telescope, Atom Site MPS 1611209
2016 11 23.11825 01 03 44.78 +01 37 54.0 20.6 G G45 – Space Surveillance Telescope, Atom Site MPS 1611209
2016 11 23.15564 01 03 44.06 +01 38 00.7 21.2 G G45 – Space Surveillance Telescope, Atom Site MPS 1611209
2016 11 23.19396 01 03 43.27 +01 38 08.8 21.2 G G45 – Space Surveillance Telescope, Atom Site MPS 1611209
2016 11 23.23237 01 03 42.57 +01 38 16.1 21.0 G G45 – Space Surveillance Telescope, Atom Site MPS 1611209
2016 11 23.27175 01 03 41.74 +01 38 25.2 20.9 G G45 – Space Surveillance Telescope, Atom Site MPS 1611209
2016 11 24.09218 01 03 28.29 +01 41 18.5 20.8 G G45 – Space Surveillance Telescope, Atom Site MPS 1611209
2016 11 24.13185 01 03 27.63 +01 41 27.6 21.2 G G45 – Space Surveillance Telescope, Atom Site MPS 1611209
2016 11 24.20773 01 03 26.25 +01 41 43.8 21.0 G G45 – Space Surveillance Telescope, Atom Site MPS 1611209
2016 11 24.24770 01 03 25.54 +01 41 54.0 21.6 G G45 – Space Surveillance Telescope, Atom Site MPS 1611209
